User: anonymous   Login
Location: Pian di Sc�
(43.6333°N, 11.5500°E)
Time: 05:20:59
(UTC+00:00)
Language:

Cosmos 2058 Rocket - Orbit

View from above orbital plane
View from above orbital plane
View from above satellite
View from above satellite

Ground track
Ground track

The orbit data is extracted from the following two-line orbital elements,

1 20466U 90010B   20304.09536825 +.00000087 +00000-0 +81685-5 0  9993
2 20466 082.5000 300.7655 0019010 254.0872 105.8247 14.81396645638663
Epoch (UTC): 30 October 2020 02:17:19
Eccentricity: 0.0019010
inclination: 82.5000°
perigee height: 611 km
apogee height: 638 km
right ascension of ascending node: 300.7655°
argument of perigee: 254.0872°
revolutions per day: 14.81396645
mean anomaly at epoch: 105.8247°
orbit number at epoch: 63866

The dashed part of the orbit path shows where the satellite is in the earth's shadow,  

DLR